Find Starlink 33743

NORAD ID: 63440 Int'l Des: 2025-069 Owner: SPXS Country: US Constellation: starlink operational
LEOCIRCULAR

实时位置

正在加载3D地球...

关于 Starlink 33743

正在加载描述...

即将过境

Passes for default location (London). Set your location on the main map for personalized predictions.

高度历史

Loading altitude history...

两行轨道根数

1 63440U 25069H 26124.32795115 .00036743 00000-0 84933-3 0 9990
2 63440 53.1608 243.3011 0001699 89.2846 270.8355 15.42174562 61822
Epoch: May 4, 2026 • Age: 8 hours

当前状态

高度 443.0 km
速度 7.65 km/s
星下点 43.53°N, 88.48°W
发射日期 Apr 4, 2025
运行时间 1 years
类型 internet

技术详情

分类 Payload
质量 575.00 kg
干质量 530.00 kg
总质量 575.00 kg
长度 0.30 m
直径 4.10 m
跨度 29.00 m
形状 Box + pan
制造商 SPXS
平台类型 Starlink V2MO
阶段状态 In Orbit
所有者/国家 SPXS/US

Most Searched